Location: Duncanville
(32.6518°N, 96.9083°W)
Time: 10:48:59
(UTC+00:00)

CBERS-1 - Pass Details

Date: 11 February 2026
Orbit: 766 x 771 km, 98.9° (Epoch: 8 March)

Event Time Altitude Azimuth Distance (km) Brightness Sun altitude
Rises 12:25:01 0° 14° (NNE) 3,244 7.3 -10.9°
Reaches altitude 10° 12:27:20 10° 16° (NNE) 2,315 6.6 -10.5°
Maximum altitude 12:32:26 79° 103° (ESE) 787 4.2 -9.4°
Drops below altitude 10° 12:37:31 10° 190° (S) 2,304 6.5 -8.3°
Sets 12:39:49 0° 191° (SSW) 3,228 7.2 -7.9°
